Regional Weather Roundup
Issued by NWS Newport/Morehead, NC

Current Version | Previous Version | Text Only | Print | Product List | Glossary On
Versions: 1 2 3 4 5 6 7 8 9 10 11 12 13 14 15 16 17 18 19 20 21 22 23 24 25 26 27 28 29 30 31 32 33 34 35 36 37 38 39 40 41 42 43 44 45 46 47 48 49 50
000
ASUS42 KMHX 261025
RWRMHX
WEATHER ROUNDUP FOR EASTERN NORTH CAROLINA
NATIONAL WEATHER SERVICE NEWPORT/MOREHEAD CITY NC
600 AM EDT TUE MAY 26 2015

NOTE: "FAIR" INDICATES FEW OR NO CLOUDS BELOW 12,000 FEET
WITH NO SIGNIFICANT WEATHER AND/OR OBSTRUCTIONS TO VISIBILITY

NCZ015>017-031-032-045>047-102-103-261100-
NORTH COAST

CITY           SKY/WX    TMP DP  RH WIND       PRES   REMARKS
EDENTON        PTCLDY    67  63  86 S6        30.31R
ELIZABETH CITY CLEAR     62  60  93 S5        30.30R
KITTY HAWK     SUNNY     69  63  81 S3        30.30R
MANTEO         PTCLDY    70  63  80 SW8       30.31R

$$

NCZ045>047-081-094-103-104-261100-
CENTRAL COAST

CITY           SKY/WX    TMP DP  RH WIND       PRES   REMARKS
FRISCO         CLEAR     72  63  73 SW8       30.31R
SWANQUARTER      N/A     72 N/A N/A S8G14     30.27S

$$

NCZ095-097-098-100-101-261100-
SOUTHERN COAST

CITY           SKY/WX    TMP DP  RH WIND       PRES   REMARKS
BEAUFORT       PTCLDY    72  65  78 S6        30.29R
CEDAR ISLAND     N/A     68 N/A N/A SE2       30.33S
JACKSONVILLE   CLEAR     62  60  93 CALM      30.28R
PINEY ISLAND   SUNNY    N/A N/A N/A SE6       30.29S
WILMINGTON     CLEAR     65  62  90 CALM      30.27R


$$

NCZ011>013-027>030-043-044-078>080-089-090>093-098-261100-
COASTAL PLAIN

CITY           SKY/WX    TMP DP  RH WIND       PRES   REMARKS
AHOSKIE        CLEAR     59  58  97 CALM      30.30R
CLINTON        CLEAR     62  62 100 CALM      30.29R
ELIZABETHTOWN  CLEAR     63  63 100 CALM      30.27R
GOLDSBORO      CLEAR     61  60  96 CALM      30.27
GREENVILLE     CLEAR     61  61 100 CALM      30.30R
HAVELOCK       CLEAR     62  59  90 CALM      30.30R
KENANSVILLE    CLEAR     57  56  95 CALM      30.30R
KINSTON        CLEAR     60  59  98 CALM      30.30R
NEW BERN       PTCLDY    61  57  87 CALM      30.30R
RICHLANDS      CLEAR     57  52  82 CALM      30.30R
ROCKY MOUNT    CLEAR     61  60  97 CALM      30.30R FOG
WASHINGTON       N/A     62  60  93 CALM      30.31R
WHITEVILLE     CLEAR     63  61  95 CALM      30.26R

$$

AMZ130-135-150-152-154-156-158-170-250-252-270-ANZ085-086-088-633-658-670-261100-
MARINE OBSERVATIONS

STATION/POSITION TIME  TEMP    WIND        PRES    WAVE   SWELL
                       AIR SEA DIR/SP/G            HT/PER HT/PER
                 (UTC) (F)     (DEG/KT/KT) (MB)    (FT/S) (FT/S)
CHESAPEAKE LIGHT 1000   67     190/ 14/ 14 1026.3
64 E VA BEACH    0950   65 63  200/  6/  8 1026.0    1/ 9   2/ 9
DUCK             1000   71 60  210/  6/  9 1025.3
2 E DUCK         1011      63                N/A     1/ 8
OREGON INLET     1000   73 75  190/  8/  9 1026.3
13E OREGON INLT  1000      66                N/A     2/ 5
HATTERAS CG      1000   74 75  170/  8/ 12 1025.7
DIAMOND BUOY     0950   75 77  170/ 16/ 17 1026.1    3/ 5   2/ 7
CAPE LOOKOUT     1000   74     170/ 11/ 13 1025.4
BEAUFORT LAB     1000   74 74  180/  9/ 12 1024.8
27 SE WRIGHTSVLE 1000   72 76  170/ 12/ 16   N/A
5 SE WRIGHTSVLE  0908   75 76  180/ 12/ 16 1024.6
225 S CAPE HAT   0950   73 74  130/ 12/ 16 1026.0    4/ 6   2/ 6
41 SE CHARLESTON 0950   78 76  170/  8/ 10 1023.1    4/ 7   3/ 7

$$



USA.gov is the U.S. government's official web portal to all federal, state and local government web resources and services.